When you browse on this site, cookies collect data to enhance your experience and personalize the content and advertising you see.
Visit our Privacy Policy to learn more. By continuing to use the site, you agree to this use of cookies and data.
  • In Hungary
  • List of Countries
  • For 7 days
  • Water Temperature
  • Weather Map
  • News
  • Weather Widgets
  • user-avatar
    Login

    Hourly Weather Gorzew

    Today, 31 May, Sunday

    Time Temperature Precipitation Wind Pressure Humidity
    00:00 +8°C° 1.5 mm 7 mps 745 mmHg 87%
    01:00 +8°C° 0 mm 7 mps 745 mmHg 92%
    02:00 +8°C° 1.9 mm 7 mps 744 mmHg 93%
    03:00 +9°C° 1.9 mm 7 mps 744 mmHg 94%
    04:00 +9°C° 1.9 mm 7 mps 744 mmHg 95%
    05:00 +9°C° 0.2 mm 7 mps 744 mmHg 93%
    06:00 +9°C° 0.2 mm 7 mps 744 mmHg 91%
    07:00 +9°C° 0.2 mm 7 mps 744 mmHg 89%
    08:00 +10°C° 0.1 mm 7 mps 744 mmHg 87%
    09:00 +11°C° 0.1 mm 7 mps 744 mmHg 85%
    10:00 +12°C° 0.1 mm 7 mps 745 mmHg 83%
    11:00 +14°C° 0 mm 6 mps 745 mmHg 81%
    12:00 +14°C° 0 mm 6 mps 745 mmHg 80%
    13:00 +15°C° 0 mm 6 mps 746 mmHg 78%
    14:00 +15°C° 0 mm 5 mps 746 mmHg 78%
    15:00 +16°C° 0 mm 5 mps 746 mmHg 77%
    16:00 +16°C° 0 mm 5 mps 746 mmHg 77%
    17:00 +16°C° 0 mm 5 mps 747 mmHg 77%
    18:00 +15°C° 0 mm 5 mps 747 mmHg 78%
    19:00 +15°C° 0 mm 4 mps 748 mmHg 78%
    20:00 +14°C° 0 mm 4 mps 748 mmHg 79%
    21:00 +13°C° 0 mm 4 mps 748 mmHg 79%
    22:00 +13°C° 0 mm 4 mps 749 mmHg 80%
    23:00 +12°C° 0 mm 4 mps 749 mmHg 83%

    Tomorrow, 1 June, Monday

    Time Temperature Precipitation Wind Pressure Humidity
    00:00 +11°C° 0 mm 4 mps 749 mmHg 85%
    01:00 +10°C° 0 mm 4 mps 750 mmHg 88%
    02:00 +8°C° 0 mm 4 mps 749 mmHg 88%
    03:00 +8°C° 0 mm 3 mps 749 mmHg 89%
    04:00 +8°C° 0 mm 3 mps 749 mmHg 90%
    05:00 +8°C° 0 mm 4 mps 749 mmHg 85%
    06:00 +11°C° 0 mm 4 mps 750 mmHg 80%
    07:00 +12°C° 0 mm 4 mps 750 mmHg 75%
    08:00 +13°C° 0 mm 5 mps 750 mmHg 69%
    09:00 +14°C° 0 mm 5 mps 750 mmHg 64%
    10:00 +15°C° 0 mm 6 mps 750 mmHg 58%
    11:00 +16°C° 0 mm 6 mps 750 mmHg 56%
    12:00 +16°C° 0 mm 6 mps 750 mmHg 54%
    13:00 +16°C° 0 mm 7 mps 750 mmHg 52%
    14:00 +16°C° 0 mm 6 mps 750 mmHg 52%
    15:00 +16°C° 0 mm 6 mps 750 mmHg 53%
    16:00 +16°C° 0 mm 6 mps 750 mmHg 54%
    17:00 +15°C° 0 mm 5 mps 749 mmHg 60%
    18:00 +14°C° 0 mm 5 mps 749 mmHg 66%
    19:00 +13°C° 0 mm 4 mps 749 mmHg 73%
    20:00 +12°C° 0 mm 4 mps 749 mmHg 75%
    21:00 +11°C° 0 mm 4 mps 749 mmHg 77%
    22:00 +11°C° 0 mm 4 mps 749 mmHg 80%
    23:00 +10°C° 0 mm 4 mps 749 mmHg 82%

    Day after tomorrow, 2 June, Tuesday

    Time Temperature Precipitation Wind Pressure Humidity
    00:00 +10°C° 0 mm 4 mps 748 mmHg 84%
    01:00 +8°C° 0 mm 4 mps 748 mmHg 86%
    02:00 +9°C° 0.1 mm 3 mps 747 mmHg 88%
    03:00 +9°C° 0.1 mm 3 mps 747 mmHg 91%
    04:00 +8°C° 0.1 mm 3 mps 747 mmHg 93%
    05:00 +9°C° 0 mm 3 mps 747 mmHg 90%
    06:00 +10°C° 0 mm 4 mps 747 mmHg 87%
    07:00 +11°C° 0 mm 4 mps 747 mmHg 84%
    08:00 +13°C° 0.1 mm 5 mps 747 mmHg 76%
    09:00 +14°C° 0.1 mm 5 mps 746 mmHg 68%
    10:00 +15°C° 0.1 mm 6 mps 746 mmHg 59%
    11:00 +16°C° 0.1 mm 6 mps 746 mmHg 57%
    12:00 +16°C° 0.1 mm 6 mps 745 mmHg 55%
    13:00 +17°C° 0.1 mm 6 mps 745 mmHg 53%
    14:00 +17°C° 0 mm 6 mps 744 mmHg 54%
    15:00 +17°C° 0 mm 6 mps 744 mmHg 54%
    16:00 +17°C° 0 mm 5 mps 744 mmHg 55%
    17:00 +16°C° 0 mm 5 mps 743 mmHg 61%
    18:00 +15°C° 0 mm 4 mps 743 mmHg 67%
    19:00 +14°C° 0 mm 3 mps 743 mmHg 73%
    20:00 +12°C° 0 mm 3 mps 743 mmHg 77%
    21:00 +11°C° 0 mm 3 mps 743 mmHg 80%
    22:00 +10°C° 0 mm 3 mps 743 mmHg 84%
    23:00 +9°C° 0 mm 3 mps 742 mmHg 87%

    3 June, Wednesday

    Time Temperature Precipitation Wind Pressure Humidity
    00:00 +8°C° 0 mm 2 mps 742 mmHg 89%
    01:00 +8°C° 0 mm 2 mps 742 mmHg 92%
    02:00 +7°C° 0 mm 2 mps 742 mmHg 93%
    03:00 +7°C° 0 mm 2 mps 741 mmHg 93%
    04:00 +7°C° 0 mm 2 mps 741 mmHg 94%
    05:00 +8°C° 0 mm 3 mps 741 mmHg 88%
    06:00 +10°C° 0 mm 3 mps 741 mmHg 82%
    07:00 +12°C° 0 mm 3 mps 741 mmHg 75%
    08:00 +13°C° 0.1 mm 4 mps 741 mmHg 71%
    09:00 +14°C° 0.1 mm 4 mps 741 mmHg 66%
    10:00 +17°C° 0.1 mm 4 mps 740 mmHg 62%
    11:00 +17°C° 0.1 mm 4 mps 740 mmHg 62%
    12:00 +17°C° 0.1 mm 4 mps 740 mmHg 62%
    13:00 +17°C° 0.1 mm 3 mps 740 mmHg 62%
    14:00 +17°C° 0 mm 3 mps 739 mmHg 61%
    15:00 +17°C° 0 mm 3 mps 739 mmHg 61%
    16:00 +17°C° 0 mm 3 mps 739 mmHg 61%
    17:00 +16°C° 0 mm 2 mps 739 mmHg 66%
    18:00 +16°C° 0 mm 2 mps 739 mmHg 71%
    19:00 +15°C° 0 mm 1 mps 739 mmHg 75%
    20:00 +14°C° 0 mm 1 mps 739 mmHg 79%
    21:00 +12°C° 0 mm 1 mps 739 mmHg 82%
    22:00 +11°C° 0 mm 1 mps 739 mmHg 85%
    23:00 +11°C° 0 mm 1 mps 739 mmHg 86%

    4 June, Thursday

    Time Temperature Precipitation Wind Pressure Humidity
    00:00 +10°C° 0 mm 1 mps 739 mmHg 88%
    01:00 +10°C° 0 mm 1 mps 739 mmHg 89%
    02:00 +10°C° 0 mm 1 mps 738 mmHg 90%
    03:00 +10°C° 0 mm 1 mps 738 mmHg 90%
    04:00 +9°C° 0 mm 1 mps 738 mmHg 91%
    05:00 +11°C° 0 mm 1 mps 738 mmHg 84%
    06:00 +13°C° 0 mm 1 mps 738 mmHg 78%
    07:00 +15°C° 0 mm 1 mps 738 mmHg 71%
    08:00 +16°C° 0 mm 1 mps 738 mmHg 65%
    09:00 +19°C° 0 mm 1 mps 737 mmHg 59%
    10:00 +20°C° 0 mm 1 mps 737 mmHg 52%
    11:00 +20°C° 0 mm 2 mps 737 mmHg 49%
    12:00 +20°C° 0 mm 2 mps 736 mmHg 47%
    13:00 +21°C° 0 mm 2 mps 736 mmHg 44%
    14:00 +21°C° 0 mm 2 mps 736 mmHg 46%
    15:00 +21°C° 0 mm 2 mps 735 mmHg 48%
    16:00 +23°C° 0 mm 2 mps 735 mmHg 50%
    17:00 +20°C° 0.7 mm 2 mps 734 mmHg 64%
    18:00 +18°C° 0.7 mm 2 mps 734 mmHg 77%
    19:00 +15°C° 0.7 mm 1 mps 734 mmHg 90%
    20:00 +15°C° 2.9 mm 2 mps 733 mmHg 92%
    21:00 +15°C° 2.9 mm 2 mps 733 mmHg 94%
    22:00 +14°C° 2.9 mm 2 mps 733 mmHg 96%
    23:00 +13°C° 0.5 mm 4 mps 733 mmHg 96%

    5 June, Friday

    Time Temperature Precipitation Wind Pressure Humidity
    00:00 +13°C° 0.5 mm 5 mps 733 mmHg 95%
    01:00 +11°C° 0.5 mm 7 mps 733 mmHg 94%
    02:00 +11°C° 0 mm 7 mps 734 mmHg 92%
    03:00 +10°C° 0 mm 8 mps 734 mmHg 90%
    04:00 +9°C° 0 mm 8 mps 734 mmHg 88%
    05:00 +9°C° 0 mm 8 mps 735 mmHg 86%
    06:00 +10°C° 0 mm 8 mps 736 mmHg 85%
    07:00 +10°C° 0 mm 8 mps 737 mmHg 83%
    08:00 +10°C° 0.1 mm 8 mps 737 mmHg 78%
    09:00 +11°C° 0.1 mm 8 mps 737 mmHg 73%
    10:00 +12°C° 0.1 mm 8 mps 738 mmHg 68%
    11:00 +12°C° 0.1 mm 8 mps 738 mmHg 67%
    12:00 +12°C° 0.1 mm 8 mps 738 mmHg 66%
    13:00 +12°C° 0.1 mm 8 mps 738 mmHg 64%
    14:00 +14°C° 0 mm 7 mps 738 mmHg 63%
    15:00 +14°C° 0 mm 7 mps 738 mmHg 62%
    16:00 +15°C° 0 mm 7 mps 738 mmHg 61%
    17:00 +14°C° 0 mm 5 mps 738 mmHg 65%
    18:00 +13°C° 0 mm 4 mps 738 mmHg 70%
    19:00 +14°C° 0 mm 2 mps 738 mmHg 74%
    20:00 +12°C° 0 mm 3 mps 739 mmHg 75%
    21:00 +11°C° 0 mm 3 mps 739 mmHg 76%
    22:00 +10°C° 0 mm 3 mps 739 mmHg 77%
    23:00 +10°C° 0 mm 3 mps 739 mmHg 77%
    Show more